GW4504 Weather Reports


time (UTC)temp
C
wind
direction
speed
KPH
gust
KPH
rain 1hr
cm
rain 24hr
cm
rain mn
cm
humidity
%
barometer
mb
20260506014503 9 19 12.9 29.0 0.00 0.05 0.00 79 1009.8
20260506013057 10 360 11.3 19.3 0.00 0.05 0.00 79 1009.7
20260506011558 10 12 4.8 25.7 0.00 0.05 0.00 78 1009.0
20260506010053 10 45 9.7 24.1 0.00 0.05 0.00 78 1008.9
20260506004551 10 69 8.0 20.9 0.00 0.05 0.00 79 1008.8
20260506003049 9 23 9.7 24.1 0.00 0.05 0.00 79 1008.8
20260506001556 10 15 14.5 22.5 0.00 0.05 0.00 80 1008.6
20260506000057 10 5 11.3 24.1 0.00 0.05 0.00 79 1008.4
20260505234544 10 71 14.5 24.1 0.00 0.05 0.00 78 1008.8
20260505233048 10 44 9.7 25.7 0.00 0.05 0.00 77 1008.4
20260505231541 10 36 16.1 32.2 0.00 0.05 0.00 76 1008.4
20260505230044 10 60 9.7 25.7 0.00 0.05 0.00 76 1008.1
20260505224542 10 44 16.1 29.0 0.00 0.05 0.00 76 1007.7
20260505223036 10 42 14.5 33.8 0.00 0.05 0.00 76 1007.6
20260505221527 11 29 11.3 22.5 0.00 0.05 0.00 76 1007.2
20260505220026 11 15 20.9 35.4 0.00 0.05 0.00 74 1007.5
20260505214524 11 34 16.1 32.2 0.00 0.05 0.00 74 1006.9
20260505213026 11 23 11.3 32.2 0.00 0.05 0.00 74 1006.9
20260505211527 11 42 20.9 35.4 0.00 0.05 0.00 73 1007.1
20260505210015 11 13 14.5 35.4 0.00 0.05 0.00 73 1006.9
20260505204512 11 5 11.3 27.4 0.00 0.05 0.00 74 1006.9
20260505203015 11 27 20.9 30.6 0.00 0.05 0.00 73 1006.7
20260505201510 11 5 16.1 35.4 0.00 0.05 0.00 74 1006.6
20260505200007 11 42 19.3 32.2 0.00 0.05 0.00 75 1006.9
20260505194507 11 49 12.9 29.0 0.00 0.05 0.00 75 1006.8
20260505193003 12 47 19.3 40.2 0.00 0.05 0.00 74 1006.7
20260505191501 12 69 20.9 43.5 0.00 0.05 0.00 75 1006.1
20260505190111 12 28 17.7 33.8 0.00 0.05 0.00 76 1006.3
20260505184557 12 30 14.5 30.6 0.00 0.05 0.00 77 1006.2
20260505183053 12 11 16.1 38.6 0.00 0.05 0.00 76 1006.1
20260505181631 12 43 11.3 27.4 0.00 0.05 0.00 77 1006.0
20260505174550 12 43 14.5 30.6 0.00 0.05 0.00 78 1005.5
20260505173046 12 22 11.3 25.7 0.00 0.05 0.00 80 1005.5
20260505171549 12 38 17.7 32.2 0.00 0.05 0.00 81 1005.2
20260505170042 12 36 17.7 32.2 0.00 0.05 0.00 82 1004.9
20260505164540 11 30 17.7 37.0 0.00 0.05 0.00 82 1004.6
20260505163037 12 35 17.7 41.8 0.00 0.05 0.00 83 1004.6
20260505161536 12 25 12.9 32.2 0.00 0.05 0.00 85 1004.4
20260505153036 11 38 11.3 35.4 0.00 0.05 0.00 88 1003.7
20260505151524 12 355 17.7 32.2 0.00 0.05 0.00 88 1003.6
20260505124551 17 59 6.4 17.7 0.00 0.05 0.00 88 1001.8
20260505123054 17 52 8.0 24.1 0.00 0.05 0.00 88 1001.5
20260505121547 17 55 9.7 17.7 0.00 0.05 0.00 87 1001.3
20260505120104 17 23 6.4 17.7 0.00 0.05 0.00 85 1001.3
20260505114543 18 24 6.4 17.7 0.00 0.05 0.00 83 1001.1
20260505113042 18 36 4.8 12.9 0.00 0.05 0.00 82 1000.7
20260505111542 18 9 8.0 14.5 0.00 0.05 0.00 81 1000.6
20260505110105 18 147 9.7 20.9 0.00 0.05 0.00 81 999.7
20260505101539 17 77 6.4 16.1 0.00 0.05 0.00 86 1000.2
20260505100038 17 79 4.8 17.7 0.00 0.05 0.00 87 1000.0
20260505094536 17 49 8.0 17.7 0.00 0.05 0.00 86 1000.0
20260505093034 17 115 8.0 17.7 0.00 0.05 0.00 85 999.9
20260505091534 17 78 6.4 12.9 0.00 0.05 0.00 84 999.8
20260505090036 17 111 8.0 17.7 0.00 0.05 0.00 82 999.7
20260505084536 17 119 4.8 14.5 0.00 0.05 0.00 82 999.6
20260505083031 17 86 4.8 14.5 0.00 0.05 0.00 82 999.5
20260505081531 17 114 3.2 14.5 0.00 0.05 0.00 82 999.5
20260505080030 17 154 8.0 16.1 0.00 0.05 0.00 81 999.6
20260505074530 17 73 6.4 17.7 0.00 0.05 0.00 82 999.7
20260505073025 17 163 4.8 14.5 0.00 0.05 0.00 82 1000.0
20260505071525 17 51 12.9 22.5 0.00 0.05 0.00 81 1000.1
20260505070020 17 71 8.0 19.3 0.00 0.05 0.00 80 1000.6
20260505064515 18 103 6.4 16.1 0.00 0.05 0.00 79 1000.7
20260505063011 18 67 9.7 17.7 0.00 0.05 0.00 79 1001.2
20260505061510 19 65 4.8 16.1 0.00 0.05 0.00 81 1001.2
20260505060008 19 81 8.0 20.9 0.00 0.05 0.00 82 1001.4
20260505054516 18 19 8.0 16.1 0.00 0.05 0.00 83 1001.7
20260505053005 18 5 6.4 16.1 0.00 0.05 0.00 83 1001.8
20260505051502 18 9 3.2 8.0 0.00 0.05 0.00 83 1001.4
20260505050104 19 355 3.2 6.4 0.00 0.05 0.00 81 1000.8
20260505041604 19 114 8.0 16.1 0.05 0.05 0.05 78 999.9
20260505034609 19 138 6.4 17.7 0.05 0.05 0.05 78 1000.0
20260505033051 21 156 9.7 16.1 0.03 0.03 0.03 72 1000.1
20260505031552 21 151 8.0 17.7 0.00 0.00 0.00 70 1000.0
20260505030100 21 144 8.0 16.1 0.00 0.00 0.00 71 1000.2
20260505024607 21 127 6.4 16.1 0.00 0.00 0.00 70 1000.6
20260505023049 21 154 6.4 16.1 0.00 0.00 0.00 71 1000.7
20260505021549 21 149 4.8 11.3 0.00 0.00 0.00 71 1000.9